Location: Ciserano
(45.5833°N, 9.6000°E)
Time: 18:07:02
(UTC+00:00)

ATLAS 2AS CENTAUR R/B - Pass Details

Date: 29 November 2020
Orbit: 943 x 1268 km, 63.7° (Epoch: 21 January)

Event Time Altitude Azimuth Distance (km) Brightness Sun altitude
Exits shadow 06:03:11 - 261° (W) 4,218 5.3 -6.5°
Reaches altitude 10° 06:06:26 10° 272° (W) 3,259 4.7 -6.0°
Maximum altitude 06:13:16 31° 331° (NNW) 2,068 3.8 -4.9°
Drops below altitude 10° 06:19:58 10° 31° (NNE) 3,180 5.3 -3.8°
Sets 06:23:07 0° 42° (NE) 4,104 6.0 -3.3°
